Regional Weather Roundup
Issued by NWS Sioux Falls, SD

Home | Current Version | Previous Version | Text Only | Print | Product List | Glossary Off
Versions: 1 2 3 4 5 6 7 8 9 10 11 12 13 14 15 16 17 18 19 20 21 22 23 24 25 26 27 28 29 30 31 32 33 34 35 36 37 38 39 40 41 42 43 44 45 46 47 48 49 50

000
ASUS43 KFSD 211710
RWRFSD

WEATHER ROUNDUP FOR SE SOUTH DAKOTA/SW MINNESOTA/NW IOWA
NATIONAL WEATHER SERVICE SIOUX FALLS SD
1100 AM CST SUN DEC 21 2014

NOTE: "FAIR" INDICATES FEW OR NO CLOUDS BELOW 12,000 FEET WITH NO
SIGNIFICANT WEATHER AND OR OBSTRUCTIONS TO VISIBILITY.


SDZ038>040-050-052>070-211800-
SOUTHEAST SOUTH DAKOTA

CITY           SKY/WX    TMP DP  RH WIND       PRES   REMARKS
CHAMBERLAIN    SUNNY     29  25  84 E5        29.59F WCI  24
HURON          CLOUDY    31  30  96 SE12      29.66F FOG     WCI  22
MADISON        FOG       32  32 100 S18       29.69S VSB<1/4 WCI  20
MITCHELL       CLOUDY    32  31  96 S16       29.67F FOG     WCI  21
SIOUX FALLS    FOG       33  33 100 S17       29.73F VSB 1/2 WCI  22
WINNER         FAIR      39  27  62 SW14      29.57F
YANKTON        CLOUDY    34  30  86 E7        29.73F WCI  28
$$

MNZ071-072-080-081-089-090-097-098-211800-
SOUTHWEST MINNESOTA

CITY           SKY/WX    TMP DP  RH WIND       PRES   REMARKS
FAIRMONT       CLOUDY    36  32  87 S14       29.80F
JACKSON        CLOUDY    36  34  93 S12       29.78F FOG
LUVERNE        FOG       36  34  93 S14       29.75S VSB 1/4
MARSHALL       CLOUDY    34  30  86 S8        29.74F WCI  27
MONTEVIDEO     CLOUDY    34  34 100 S8        29.75F FOG     WCI  27
PIPESTONE      SNOW      34  34 100 S3        29.71F VSB 1/4
REDWOOD FALLS  CLOUDY    35  34  96 S13       29.76S FOG     WCI  26
TRACY          CLOUDY    35  34  96 S10G16    29.73F FOG     WCI  27
WINDOM         CLOUDY    36  36 100 S9G16     29.75F FOG
WORTHINGTON    CLOUDY    34 N/A N/A S15G21    29.75F VSB 3/4 WCI  24
$$

IAZ001>003-012>014-020>022-031-032-NEZ013-014-SDZ071-211800-
NORTHWEST IOWA

CITY           SKY/WX    TMP DP  RH WIND       PRES   REMARKS
CHEROKEE       CLOUDY    38  38 100 S13G20    29.79F FOG
DENISON        CLOUDY    37  37 100 S20G26    29.81F FOG
ESTHERVILLE    FOG       35  35 100 S15       29.79F VSB 1   WCI  25
LE MARS        CLOUDY    37  37 100 S18       29.76F FOG
ORANGE CITY    FOG       37  36  93 S12       29.76F VSB 1
SHELDON        FOG       36  36 100 S15       29.76S VSB 1/2
SIOUX CITY     CLOUDY    40  37  89 S12       29.78F FOG
SPENCER        CLOUDY    37  36  96 S15       29.79F FOG
STORM LAKE     FOG       37  37 100 S20       29.79F VSB 1/2
$$

ABBREVIATIONS USED IN REMARKS
   TC - TEMPERATURE IN CELSIUS
  WCI - WIND CHILL INDEX
   HX - HEAT INDEX
  VSB - VISIBILITY



USA.gov is the U.S. government's official web portal to all federal, state and local government web resources and services.